Home > Time Zones > World Clock > Weather > U.S.A. > Hilo > Past weeks

Flag for U.S.A. Weather past 2 weeks in Hilo, Hawaii, U.S.A.

Now
74 °F

Light rain. Mostly cloudy.


Feels Like: 72 °F
Forecast: 73 / 80 °F
Wind: No wind

Location: Hilo International Airport

Current Time: Sep 2, 2014 at 2:52:16 AM

Latest Report: Sep 2, 2014 at 1:53 AM


Visibility: 8 mi

Pressure: 30.01 "Hg

Humidity: 91%

Dew point: 71 °F

Location of HiloLocation

Historic Weather in Hilo — Graph

°F

Hilo temperature yesterday

Maximum temperature yesterday: 87 °F (at 11:54 AM)
Minimum temperature yesterday: 73 °F (at 6:32 AM)
Average temperature yesterday: 79 °F

Past Weeks' High & Low Weather Summary

 TemperatureHumidityPressure
High87 °F (Aug 31, 10:53 AM)100% (Aug 20, 9:16 PM)30.06 "Hg (Aug 20, 9:16 PM)
Low67 °F (Aug 28, 4:53 AM)49% (Aug 30, 11:53 AM)29.84 "Hg (Aug 28, 3:53 PM)
Average77 °F79%29.96 "Hg
* Reported Aug 18 1:53 AM — Sep 2 1:53 AM, Hilo, Weather by CustomWeather, © 2014

Note: Actual official high and low records may vary slightly from our data, if they occured in-between our weather recording intervals... More about our weather records

Advertising

Hilo weather history for previous 24 hours

 ConditionsComfort  
Time TempWeatherWind HumidityBarometerVisibility
1:53 AM
Sep 2
74 °FLight rain. Mostly cloudy.No wind91%30.01 "Hg8 mi
12:53 AM75 °FMostly cloudy.No wind88%30.02 "Hg10 mi
12:27 AM73 °FLight rain. Mostly cloudy.No wind94%30.03 "Hg10 mi
11:53 PM
Sep 1
74 °FPartly cloudy.6 mph88%30.03 "Hg10 mi
10:53 PM74 °FPassing clouds.5 mph91%30.05 "Hg10 mi
10:42 PM75 °FPassing clouds.5 mph89%30.05 "Hg10 mi
9:53 PM76 °FLight rain. Passing clouds.3 mph91%30.05 "Hg10 mi
9:13 PM77 °FOvercast.3 mph89%30.05 "Hg10 mi
8:53 PM78 °FMostly cloudy.6 mph84%30.03 "Hg10 mi
7:53 PM78 °FPassing clouds.No wind84%30.02 "Hg10 mi
6:53 PM79 °FPassing clouds.No wind79%30.01 "Hg10 mi
5:53 PM81 °FBroken clouds.5 mph74%29.99 "Hg10 mi
4:53 PM82 °FPartly sunny.7 mph70%29.98 "Hg10 mi
3:54 PM86 °FScattered clouds.7 mph61%29.97 "Hg10 mi
1:54 PM85 °FScattered clouds.N/A63%29.99 "Hg10 mi
1:29 PM86 °FPassing clouds.10 mph63%30.00 "Hg10 mi
12:54 PM86 °FPassing clouds.12 mph63%30.00 "Hg10 mi
11:54 AM87 °FPassing clouds.12 mph61%30.01 "Hg10 mi
9:53 AM84 °FScattered clouds.5 mph67%30.03 "Hg10 mi
8:53 AM82 °FScattered clouds.7 mph72%30.03 "Hg10 mi
7:53 AM79 °FSunny.5 mph79%30.03 "Hg10 mi
7:33 AM77 °FScattered clouds.6 mph83%30.03 "Hg10 mi
6:53 AM74 °FPassing clouds.6 mph88%30.02 "Hg10 mi
6:32 AM73 °FPartly sunny.3 mph89%30.02 "Hg10 mi
5:53 AM74 °FPassing clouds.5 mph88%30.00 "Hg10 mi
4:53 AM75 °FOvercast.6 mph88%29.99 "Hg10 mi
3:53 AM74 °FOvercast.3 mph88%29.98 "Hg10 mi
2:53 AM74 °FOvercast.5 mph88%29.99 "Hg10 mi
Weather by CustomWeather, © 2014

See weather overviewHow to use our weather pages